Location: Skalnate Pleso
(49.1889°N, 20.2450°E)
Time: 15:49:09
(UTC+02:00)

Cosmos 1605 Rocket - Pass Details

Date: 21 February 2020
Orbit: 944 x 1007 km, 82.9° (Epoch: 31 March)

Event Time Altitude Azimuth Distance (km) Brightness Sun altitude
Rises 01:29:22 0° 1° (N) 3,696 7.6 -46.7°
Reaches altitude 10° 01:33:53 10° 31° (NNE) 2,726 6.9 -46.3°
Maximum altitude 01:36:14 12° 54° (NE) 2,558 6.7 -46.0°
Drops below altitude 10° 01:38:35 10° 76° (ENE) 2,704 6.7 -45.8°
Sets 01:42:59 0° 106° (ESE) 3,631 7.2 -45.3°
